Time,TemperatureF,DewpointF,PressureIn,WindDirection,WindDirectionDegrees,WindSpeedMPH,WindSpeedGustMPH,Humidity,HourlyPrecipIn,Conditions,Clouds,dailyrainin,SolarRadiationWatts/m^2,SoftwareType,DateUTC
2013-10-24 00:04:00,44.3,41.0,29.85,South,171,0.0,0.0,89,0.00,,,0.00,0,weatherlink.com 1.10,2013-10-24 07:04:00,
2013-10-24 00:19:00,43.8,41.0,29.85,South,171,0.0,0.0,90,0.00,,,0.00,0,weatherlink.com 1.10,2013-10-24 07:19:00,
2013-10-24 00:34:00,43.4,41.0,29.85,South,171,0.0,0.0,91,0.00,,,0.00,0,weatherlink.com 1.10,2013-10-24 07:34:00,
2013-10-24 00:49:00,42.9,41.0,29.85,South,171,0.0,0.0,91,0.00,,,0.00,0,weatherlink.com 1.10,2013-10-24 07:49:00,
2013-10-24 01:04:00,42.5,40.0,29.85,South,171,0.0,0.0,92,0.00,,,0.00,0,weatherlink.com 1.10,2013-10-24 08:04:00,
2013-10-24 01:19:00,42.1,40.0,29.85,South,171,0.0,0.0,92,0.00,,,0.00,0,weatherlink.com 1.10,2013-10-24 08:19:00,
2013-10-24 01:34:00,41.8,40.0,29.84,South,171,0.0,0.0,93,0.00,,,0.00,0,weatherlink.com 1.10,2013-10-24 08:34:00,
2013-10-24 01:49:00,41.5,40.0,29.84,South,171,0.0,0.0,93,0.00,,,0.00,0,weatherlink.com 1.10,2013-10-24 08:49:00,
2013-10-24 02:04:00,41.1,39.0,29.85,South,171,0.0,0.0,93,0.00,,,0.00,0,weatherlink.com 1.10,2013-10-24 09:04:00,
2013-10-24 02:19:00,40.8,39.0,29.86,South,171,0.0,0.0,93,0.00,,,0.00,0,weatherlink.com 1.10,2013-10-24 09:19:00,
2013-10-24 02:34:00,40.2,38.0,29.86,WSW,242,3.0,3.0,93,0.00,,,0.00,0,weatherlink.com 1.10,2013-10-24 09:34:00,
2013-10-24 02:49:00,41.0,40.0,29.86,WSW,237,0.0,2.0,95,0.00,,,0.00,0,weatherlink.com 1.10,2013-10-24 09:49:00,
2013-10-24 03:04:00,41.8,41.0,29.86,WSW,237,0.0,0.0,96,0.00,,,0.00,0,weatherlink.com 1.10,2013-10-24 10:04:00,
2013-10-24 03:19:00,42.2,41.0,29.86,WSW,237,0.0,0.0,96,0.00,,,0.00,0,weatherlink.com 1.10,2013-10-24 10:19:00,
2013-10-24 03:34:00,42.5,42.0,29.85,WSW,237,0.0,0.0,96,0.00,,,0.00,0,weatherlink.com 1.10,2013-10-24 10:34:00,
2013-10-24 03:49:00,42.6,42.0,29.86,WSW,237,0.0,0.0,96,0.00,,,0.00,0,weatherlink.com 1.10,2013-10-24 10:49:00,
2013-10-24 04:04:00,42.6,42.0,29.86,WSW,237,0.0,0.0,96,0.00,,,0.00,0,weatherlink.com 1.10,2013-10-24 11:04:00,
2013-10-24 04:19:00,42.5,42.0,29.86,WSW,237,1.0,2.0,96,0.00,,,0.00,0,weatherlink.com 1.10,2013-10-24 11:19:00,
2013-10-24 04:34:00,42.1,41.0,29.86,West,271,0.0,2.0,95,0.00,,,0.00,0,weatherlink.com 1.10,2013-10-24 11:34:00,
2013-10-24 04:49:00,42.0,41.0,29.86,West,271,0.0,0.0,95,0.00,,,0.00,0,weatherlink.com 1.10,2013-10-24 11:49:00,
2013-10-24 05:04:00,42.2,41.0,29.86,West,271,0.0,0.0,96,0.00,,,0.00,0,weatherlink.com 1.10,2013-10-24 12:04:00,
2013-10-24 05:19:00,42.3,41.0,29.86,West,271,1.0,2.0,96,0.00,,,0.00,0,weatherlink.com 1.10,2013-10-24 12:19:00,
2013-10-24 05:34:00,42.3,41.0,29.86,West,271,0.0,0.0,96,0.00,,,0.00,0,weatherlink.com 1.10,2013-10-24 12:34:00,
2013-10-24 05:49:00,42.4,41.0,29.86,West,271,0.0,1.0,96,0.00,,,0.00,0,weatherlink.com 1.10,2013-10-24 12:49:00,
2013-10-24 08:50:00,44.4,44.0,29.91,NW,311,2.0,3.0,97,0.00,,,0.00,62,weatherlink.com 1.10,2013-10-24 15:50:00,
2013-10-24 09:05:00,44.3,43.0,29.91,NNW,340,0.0,2.0,96,0.00,,,0.00,81,weatherlink.com 1.10,2013-10-24 16:05:00,
2013-10-24 09:20:00,44.9,44.0,29.91,West,259,0.0,3.0,97,0.00,,,0.00,97,weatherlink.com 1.10,2013-10-24 16:20:00,
2013-10-24 09:35:00,45.3,45.0,29.91,NW,304,1.0,3.0,97,0.00,,,0.00,123,weatherlink.com 1.10,2013-10-24 16:35:00,
2013-10-24 09:50:00,45.8,45.0,29.92,NW,315,1.0,3.0,97,0.00,,,0.00,144,weatherlink.com 1.10,2013-10-24 16:50:00,
2013-10-24 10:05:00,46.5,46.0,29.92,NW,304,3.0,4.0,97,0.00,,,0.00,172,weatherlink.com 1.10,2013-10-24 17:05:00,
2013-10-24 10:20:00,47.4,47.0,29.93,West,263,2.0,4.0,97,0.00,,,0.00,278,weatherlink.com 1.10,2013-10-24 17:20:00,
2013-10-24 10:35:00,48.5,48.0,29.93,West,269,3.0,7.0,97,0.00,,,0.00,288,weatherlink.com 1.10,2013-10-24 17:35:00,
2013-10-24 10:50:00,49.3,47.0,29.94,West,274,1.0,5.0,93,0.00,,,0.00,283,weatherlink.com 1.10,2013-10-24 17:50:00,
2013-10-24 11:06:00,50.0,48.0,29.95,WNW,290,1.0,6.0,92,0.00,,,0.00,262,weatherlink.com 1.10,2013-10-24 18:06:00,
2013-10-24 11:21:00,50.7,48.0,29.95,WSW,244,3.0,6.0,89,0.00,,,0.00,265,weatherlink.com 1.10,2013-10-24 18:21:00,
2013-10-24 11:36:00,51.8,48.0,29.96,SW,230,4.0,6.0,86,0.00,,,0.00,260,weatherlink.com 1.10,2013-10-24 18:36:00,
2013-10-24 11:51:00,52.2,48.0,29.96,West,275,4.0,6.0,85,0.00,,,0.00,397,weatherlink.com 1.10,2013-10-24 18:51:00,
2013-10-24 12:06:00,53.5,48.0,29.96,West,267,8.0,8.0,82,0.00,,,0.00,431,weatherlink.com 1.10,2013-10-24 19:06:00,
2013-10-24 12:21:00,52.8,47.0,29.96,WSW,253,3.0,8.0,82,0.00,,,0.00,267,weatherlink.com 1.10,2013-10-24 19:21:00,
2013-10-24 12:36:00,53.5,48.0,29.96,SW,227,5.0,7.0,81,0.00,,,0.00,636,weatherlink.com 1.10,2013-10-24 19:36:00,
2013-10-24 12:51:00,55.5,48.0,29.95,SW,216,1.0,8.0,75,0.00,,,0.00,645,weatherlink.com 1.10,2013-10-24 19:51:00,
2013-10-24 13:06:00,56.9,48.0,29.94,West,269,4.0,7.0,73,0.00,,,0.00,647,weatherlink.com 1.10,2013-10-24 20:06:00,
2013-10-24 13:21:00,58.6,49.0,29.93,WSW,243,2.0,6.0,70,0.00,,,0.00,640,weatherlink.com 1.10,2013-10-24 20:21:00,
2013-10-24 13:36:00,60.9,49.0,29.93,WSW,247,2.0,6.0,64,0.00,,,0.00,631,weatherlink.com 1.10,2013-10-24 20:36:00,
2013-10-24 13:51:00,62.6,48.0,29.93,West,269,5.0,7.0,59,0.00,,,0.00,617,weatherlink.com 1.10,2013-10-24 20:51:00,
2013-10-24 14:06:00,63.3,49.0,29.92,SW,230,4.0,8.0,59,0.00,,,0.00,598,weatherlink.com 1.10,2013-10-24 21:06:00,
2013-10-24 14:21:00,64.1,48.0,29.92,SW,218,3.0,7.0,57,0.00,,,0.00,578,weatherlink.com 1.10,2013-10-24 21:21:00,
2013-10-24 14:36:00,65.4,48.0,29.91,WSW,241,2.0,8.0,53,0.00,,,0.00,557,weatherlink.com 1.10,2013-10-24 21:36:00,
2013-10-24 14:51:00,65.6,47.0,29.91,South,171,2.0,6.0,52,0.00,,,0.00,533,weatherlink.com 1.10,2013-10-24 21:51:00,
2013-10-24 15:06:00,66.1,48.0,29.91,SW,224,2.0,6.0,52,0.00,,,0.00,503,weatherlink.com 1.10,2013-10-24 22:06:00,
2013-10-24 15:21:00,66.5,48.0,29.90,WNW,292,3.0,7.0,51,0.00,,,0.00,469,weatherlink.com 1.10,2013-10-24 22:21:00,
2013-10-24 15:37:00,67.4,47.0,29.90,SW,231,2.0,7.0,49,0.00,,,0.00,436,weatherlink.com 1.10,2013-10-24 22:37:00,
2013-10-24 15:52:00,68.1,48.0,29.90,West,277,2.0,7.0,48,0.00,,,0.00,396,weatherlink.com 1.10,2013-10-24 22:52:00,
2013-10-24 16:07:00,68.6,48.0,29.90,WSW,242,4.0,6.0,48,0.00,,,0.00,357,weatherlink.com 1.10,2013-10-24 23:07:00,
2013-10-24 16:22:00,68.9,48.0,29.90,West,277,4.0,4.0,47,0.00,,,0.00,313,weatherlink.com 1.10,2013-10-24 23:22:00,
2013-10-24 16:37:00,68.8,47.0,29.90,West,269,2.0,6.0,46,0.00,,,0.00,264,weatherlink.com 1.10,2013-10-24 23:37:00,
2013-10-24 16:52:00,67.8,47.0,29.90,West,269,2.0,6.0,47,0.00,,,0.00,211,weatherlink.com 1.10,2013-10-24 23:52:00,
2013-10-24 17:07:00,66.6,47.0,29.90,West,259,3.0,5.0,50,0.00,,,0.00,107,weatherlink.com 1.10,2013-10-25 00:07:00,
2013-10-24 17:22:00,65.4,48.0,29.90,West,271,3.0,4.0,53,0.00,,,0.00,32,weatherlink.com 1.10,2013-10-25 00:22:00,
2013-10-24 17:37:00,64.4,47.0,29.91,WSW,238,4.0,6.0,53,0.00,,,0.00,25,weatherlink.com 1.10,2013-10-25 00:37:00,
2013-10-24 17:52:00,63.1,46.0,29.91,SW,230,1.0,6.0,55,0.00,,,0.00,16,weatherlink.com 1.10,2013-10-25 00:52:00,
2013-10-24 18:07:00,61.5,46.0,29.92,SW,232,1.0,7.0,58,0.00,,,0.00,9,weatherlink.com 1.10,2013-10-25 01:07:00,
2013-10-24 18:22:00,58.9,46.0,29.92,South,171,1.0,2.0,63,0.00,,,0.00,0,weatherlink.com 1.10,2013-10-25 01:22:00,
2013-10-24 18:37:00,56.6,46.0,29.93,South,180,0.0,3.0,69,0.00,,,0.00,0,weatherlink.com 1.10,2013-10-25 01:37:00,
2013-10-24 18:52:00,54.9,46.0,29.93,SE,134,2.0,3.0,72,0.00,,,0.00,0,weatherlink.com 1.10,2013-10-25 01:52:00,
2013-10-24 19:22:00,52.2,45.0,29.93,SE,133,1.0,3.0,77,0.00,,,0.00,0,weatherlink.com 1.10,2013-10-25 02:22:00,
2013-10-24 19:37:00,51.4,45.0,29.93,SE,135,1.0,2.0,79,0.00,,,0.00,0,weatherlink.com 1.10,2013-10-25 02:37:00,
2013-10-24 19:52:00,50.8,45.0,29.93,SE,132,1.0,3.0,80,0.00,,,0.00,0,weatherlink.com 1.10,2013-10-25 02:52:00,
2013-10-24 20:07:00,50.1,44.0,29.94,SE,132,1.0,3.0,80,0.00,,,0.00,0,weatherlink.com 1.10,2013-10-25 03:07:00,
2013-10-24 20:22:00,49.6,44.0,29.94,SE,132,1.0,3.0,81,0.00,,,0.00,0,weatherlink.com 1.10,2013-10-25 03:22:00,
2013-10-24 20:37:00,48.8,44.0,29.95,SE,132,1.0,2.0,83,0.00,,,0.00,0,weatherlink.com 1.10,2013-10-25 03:37:00,
2013-10-24 20:52:00,48.3,44.0,29.95,SSE,158,1.0,2.0,85,0.00,,,0.00,0,weatherlink.com 1.10,2013-10-25 03:52:00,
2013-10-24 21:07:00,48.7,45.0,29.95,SE,129,2.0,4.0,87,0.00,,,0.00,0,weatherlink.com 1.10,2013-10-25 04:07:00,
2013-10-24 21:22:00,48.4,45.0,29.97,SE,145,5.0,7.0,87,0.00,,,0.00,0,weatherlink.com 1.10,2013-10-25 04:22:00,
2013-10-24 21:37:00,49.0,45.0,29.98,SSW,202,1.0,2.0,87,0.00,,,0.00,0,weatherlink.com 1.10,2013-10-25 04:37:00,
2013-10-24 21:52:00,48.7,45.0,29.99,SW,223,1.0,3.0,86,0.00,,,0.00,0,weatherlink.com 1.10,2013-10-25 04:52:00,
2013-10-24 22:07:00,47.3,44.0,29.99,SW,215,1.0,2.0,87,0.00,,,0.00,0,weatherlink.com 1.10,2013-10-25 05:07:00,
2013-10-24 22:22:00,46.3,43.0,29.98,SSW,213,1.0,2.0,89,0.00,,,0.00,0,weatherlink.com 1.10,2013-10-25 05:22:00,
2013-10-24 22:52:00,45.1,43.0,29.98,SSW,213,2.0,2.0,91,0.00,,,0.00,0,weatherlink.com 1.10,2013-10-25 05:52:00,
2013-10-24 23:07:00,44.8,42.0,29.99,SSW,213,1.0,2.0,91,0.00,,,0.00,0,weatherlink.com 1.10,2013-10-25 06:07:00,
2013-10-24 23:22:00,44.5,42.0,29.99,SSW,213,1.0,2.0,92,0.00,,,0.00,0,weatherlink.com 1.10,2013-10-25 06:22:00,
2013-10-24 23:37:00,44.3,42.0,29.99,SSW,213,1.0,2.0,93,0.00,,,0.00,0,weatherlink.com 1.10,2013-10-25 06:37:00,
2013-10-24 23:52:00,43.9,42.0,29.99,SSW,213,0.0,2.0,92,0.00,,,0.00,0,weatherlink.com 1.10,2013-10-25 06:52:00,